Time,TemperatureF,DewpointF,PressureIn,WindDirection,WindDirectionDegrees,WindSpeedMPH,WindSpeedGustMPH,Humidity,HourlyPrecipIn,Conditions,Clouds,dailyrainin,SoftwareType,DateUTC
2013-11-05 00:07:00,62.7,30.0,30.06,SSE,161,1.0,3.0,29,0.00,,,0.00,Wunderground v.1.13,2013-11-05 08:07:00,
2013-11-05 00:12:00,62.6,29.9,30.05,ENE,65,1.0,3.0,29,0.00,,,0.00,Wunderground v.1.13,2013-11-05 08:12:00,
2013-11-05 00:17:00,62.5,29.8,30.05,WSW,247,0.0,2.0,29,0.00,,,0.00,Wunderground v.1.13,2013-11-05 08:17:00,
2013-11-05 00:23:00,62.5,29.8,30.05,West,271,12.0,12.0,29,0.00,,,0.00,Wunderground v.1.13,2013-11-05 08:23:00,
2013-11-05 00:28:00,62.5,29.8,30.04,West,274,1.0,5.0,29,0.00,,,0.00,Wunderground v.1.13,2013-11-05 08:28:00,
2013-11-05 00:33:00,62.6,29.9,30.04,NNE,12,3.0,3.0,29,0.00,,,0.00,Wunderground v.1.13,2013-11-05 08:33:00,
2013-11-05 00:38:00,62.7,30.0,30.04,ESE,121,2.0,9.0,29,0.00,,,0.00,Wunderground v.1.13,2013-11-05 08:38:00,
2013-11-05 00:44:00,62.9,29.3,30.04,North,5,2.0,10.0,28,0.00,,,0.00,Wunderground v.1.13,2013-11-05 08:44:00,
2013-11-05 00:49:00,63.0,29.4,30.04,NNW,347,3.0,3.0,28,0.00,,,0.00,Wunderground v.1.13,2013-11-05 08:49:00,
2013-11-05 00:54:00,63.1,29.4,30.03,ENE,71,2.0,9.0,28,0.00,,,0.00,Wunderground v.1.13,2013-11-05 08:54:00,
2013-11-05 00:59:00,63.2,29.5,30.03,ESE,102,2.0,3.0,28,0.00,,,0.00,Wunderground v.1.13,2013-11-05 08:59:00,
2013-11-05 01:07:00,63.2,29.5,30.03,SW,217,0.0,3.0,28,0.00,,,0.00,Wunderground v.1.13,2013-11-05 09:07:00,
2013-11-05 01:12:00,63.2,29.5,30.03,East,88,3.0,3.0,28,0.00,,,0.00,Wunderground v.1.13,2013-11-05 09:12:00,
2013-11-05 01:17:00,63.1,29.4,30.03,WSW,246,2.0,4.0,28,0.00,,,0.00,Wunderground v.1.13,2013-11-05 09:17:00,
2013-11-05 01:22:00,63.1,29.4,30.03,South,181,2.0,3.0,28,0.00,,,0.00,Wunderground v.1.13,2013-11-05 09:22:00,
2013-11-05 01:28:00,62.9,30.1,30.03,SSW,211,1.0,3.0,29,0.00,,,0.00,Wunderground v.1.13,2013-11-05 09:28:00,
2013-11-05 01:33:00,62.8,30.0,30.03,SW,221,2.0,4.0,29,0.00,,,0.00,Wunderground v.1.13,2013-11-05 09:33:00,
2013-11-05 01:38:00,62.7,30.0,30.03,NW,324,3.0,3.0,29,0.00,,,0.00,Wunderground v.1.13,2013-11-05 09:38:00,
2013-11-05 01:43:00,62.7,30.0,30.03,NW,309,2.0,6.0,29,0.00,,,0.00,Wunderground v.1.13,2013-11-05 09:43:00,
2013-11-05 01:49:00,62.6,30.7,30.03,SW,215,1.0,6.0,30,0.00,,,0.00,Wunderground v.1.13,2013-11-05 09:49:00,
2013-11-05 01:54:00,62.5,30.6,30.03,East,80,3.0,3.0,30,0.00,,,0.00,Wunderground v.1.13,2013-11-05 09:54:00,
2013-11-05 01:59:00,62.3,30.4,30.03,NNW,346,3.0,3.0,30,0.00,,,0.00,Wunderground v.1.13,2013-11-05 09:59:00,
2013-11-05 02:07:00,62.3,30.4,30.03,NE,53,1.0,2.0,30,0.00,,,0.00,Wunderground v.1.13,2013-11-05 10:07:00,
2013-11-05 02:12:00,62.2,31.2,30.03,SSE,155,1.0,3.0,31,0.00,,,0.00,Wunderground v.1.13,2013-11-05 10:12:00,
2013-11-05 02:17:00,62.1,31.1,30.03,East,95,1.0,3.0,31,0.00,,,0.00,Wunderground v.1.13,2013-11-05 10:17:00,
2013-11-05 02:22:00,62.0,31.0,30.03,East,94,1.0,1.0,31,0.00,,,0.00,Wunderground v.1.13,2013-11-05 10:22:00,
2013-11-05 02:27:00,61.9,30.9,30.04,WNW,303,3.0,3.0,31,0.00,,,0.00,Wunderground v.1.13,2013-11-05 10:27:00,
2013-11-05 02:32:00,61.7,29.9,30.03,WNW,292,0.0,2.0,30,0.00,,,0.00,Wunderground v.1.13,2013-11-05 10:32:00,
2013-11-05 02:37:00,61.6,30.6,30.04,NW,309,0.0,2.0,31,0.00,,,0.00,Wunderground v.1.13,2013-11-05 10:37:00,
2013-11-05 02:42:00,61.4,30.5,30.04,NNW,336,4.0,4.0,31,0.00,,,0.00,Wunderground v.1.13,2013-11-05 10:42:00,
2013-11-05 02:47:00,61.3,30.4,30.04,ESE,122,1.0,5.0,31,0.00,,,0.00,Wunderground v.1.13,2013-11-05 10:47:00,
2013-11-05 02:52:00,61.1,31.0,30.05,West,273,2.0,5.0,32,0.00,,,0.00,Wunderground v.1.13,2013-11-05 10:52:00,
2013-11-05 02:57:00,61.0,30.9,30.05,NW,317,5.0,5.0,32,0.00,,,0.00,Wunderground v.1.13,2013-11-05 10:57:00,
2013-11-05 03:02:00,60.9,30.8,30.06,East,90,0.0,6.0,32,0.00,,,0.00,Wunderground v.1.13,2013-11-05 11:02:00,
2013-11-05 03:07:00,60.9,30.8,30.06,NNW,331,1.0,1.0,32,0.00,,,0.00,Wunderground v.1.13,2013-11-05 11:07:00,
2013-11-05 03:12:00,60.8,31.5,30.06,NNE,23,0.0,1.0,33,0.00,,,0.00,Wunderground v.1.13,2013-11-05 11:12:00,
2013-11-05 03:17:00,60.7,31.4,30.06,West,275,2.0,2.0,33,0.00,,,0.00,Wunderground v.1.13,2013-11-05 11:17:00,
2013-11-05 03:22:00,60.5,31.2,30.07,WSW,246,0.0,1.0,33,0.00,,,0.00,Wunderground v.1.13,2013-11-05 11:22:00,
2013-11-05 03:27:00,60.3,31.0,30.07,West,271,0.0,0.0,33,0.00,,,0.00,Wunderground v.1.13,2013-11-05 11:27:00,
2013-11-05 03:32:00,60.2,31.0,30.08,WNW,297,0.0,0.0,33,0.00,,,0.00,Wunderground v.1.13,2013-11-05 11:32:00,
2013-11-05 03:37:00,60.0,30.8,30.08,West,269,0.0,1.0,33,0.00,,,0.00,Wunderground v.1.13,2013-11-05 11:37:00,
2013-11-05 03:42:00,59.8,31.3,30.08,West,275,1.0,1.0,34,0.00,,,0.00,Wunderground v.1.13,2013-11-05 11:42:00,
2013-11-05 03:47:00,59.5,31.1,30.09,WNW,300,0.0,1.0,34,0.00,,,0.00,Wunderground v.1.13,2013-11-05 11:47:00,
2013-11-05 03:52:00,59.3,30.9,30.09,WNW,296,0.0,0.0,34,0.00,,,0.00,Wunderground v.1.13,2013-11-05 11:52:00,
2013-11-05 03:57:00,59.0,31.4,30.09,WNW,290,0.0,2.0,35,0.00,,,0.00,Wunderground v.1.13,2013-11-05 11:57:00,
2013-11-05 04:02:00,59.0,31.4,30.10,WNW,289,0.0,0.0,35,0.00,,,0.00,Wunderground v.1.13,2013-11-05 12:02:00,
2013-11-05 04:08:00,59.0,32.1,30.10,WNW,290,0.0,0.0,36,0.00,,,0.00,Wunderground v.1.13,2013-11-05 12:08:00,
2013-11-05 04:13:00,58.4,31.5,30.10,WNW,290,0.0,0.0,36,0.00,,,0.00,Wunderground v.1.13,2013-11-05 12:13:00,
2013-11-05 04:18:00,57.9,31.1,30.10,WNW,289,0.0,0.0,36,0.00,,,0.00,Wunderground v.1.13,2013-11-05 12:18:00,
2013-11-05 04:23:00,57.4,31.3,30.10,WNW,290,0.0,0.0,37,0.00,,,0.00,Wunderground v.1.13,2013-11-05 12:23:00,
2013-11-05 04:28:00,56.9,30.9,30.10,WNW,295,0.0,0.0,37,0.00,,,0.00,Wunderground v.1.13,2013-11-05 12:28:00,
2013-11-05 04:33:00,56.6,31.3,30.11,West,259,0.0,0.0,38,0.00,,,0.00,Wunderground v.1.13,2013-11-05 12:33:00,
2013-11-05 04:38:00,56.3,31.0,30.11,West,259,0.0,0.0,38,0.00,,,0.00,Wunderground v.1.13,2013-11-05 12:38:00,
2013-11-05 04:43:00,56.0,30.7,30.10,West,259,0.0,0.0,38,0.00,,,0.00,Wunderground v.1.13,2013-11-05 12:43:00,
2013-11-05 04:48:00,55.8,31.2,30.10,NNW,336,0.0,1.0,39,0.00,,,0.00,Wunderground v.1.13,2013-11-05 12:48:00,
2013-11-05 04:53:00,55.7,31.1,30.10,NE,39,0.0,0.0,39,0.00,,,0.00,Wunderground v.1.13,2013-11-05 12:53:00,
2013-11-05 04:58:00,55.5,31.5,30.10,NE,39,0.0,0.0,40,0.00,,,0.00,Wunderground v.1.13,2013-11-05 12:58:00,
2013-11-05 05:03:00,55.4,31.5,30.11,NE,39,0.0,1.0,40,0.00,,,0.00,Wunderground v.1.13,2013-11-05 13:03:00,
2013-11-05 05:08:00,55.4,31.5,30.11,NE,39,0.0,0.0,40,0.00,,,0.00,Wunderground v.1.13,2013-11-05 13:08:00,
2013-11-05 05:13:00,55.3,31.4,30.11,NE,39,0.0,0.0,40,0.00,,,0.00,Wunderground v.1.13,2013-11-05 13:13:00,
2013-11-05 05:18:00,55.2,31.9,30.11,NNE,26,0.0,3.0,41,0.00,,,0.00,Wunderground v.1.13,2013-11-05 13:18:00,
2013-11-05 05:23:00,55.2,31.3,30.12,NNE,26,0.0,1.0,40,0.00,,,0.00,Wunderground v.1.13,2013-11-05 13:23:00,
2013-11-05 05:28:00,55.2,31.9,30.12,NNE,26,0.0,1.0,41,0.00,,,0.00,Wunderground v.1.13,2013-11-05 13:28:00,
2013-11-05 05:33:00,55.3,31.4,30.12,NE,41,0.0,2.0,40,0.00,,,0.00,Wunderground v.1.13,2013-11-05 13:33:00,
2013-11-05 05:38:00,55.3,31.4,30.12,NE,41,1.0,1.0,40,0.00,,,0.00,Wunderground v.1.13,2013-11-05 13:38:00,
2013-11-05 05:43:00,55.2,31.9,30.12,NE,41,0.0,1.0,41,0.00,,,0.00,Wunderground v.1.13,2013-11-05 13:43:00,
2013-11-05 05:48:00,55.1,32.4,30.13,NE,41,0.0,0.0,42,0.00,,,0.00,Wunderground v.1.13,2013-11-05 13:48:00,
2013-11-05 05:53:00,54.9,32.2,30.13,NE,41,0.0,0.0,42,0.00,,,0.00,Wunderground v.1.13,2013-11-05 13:53:00,
2013-11-05 05:58:00,54.6,31.9,30.13,NE,41,0.0,0.0,42,0.00,,,0.00,Wunderground v.1.13,2013-11-05 13:58:00,
2013-11-05 06:03:00,54.2,32.2,30.13,NE,41,0.0,1.0,43,0.00,,,0.00,Wunderground v.1.13,2013-11-05 14:03:00,
2013-11-05 06:08:00,54.0,32.0,30.13,NE,41,0.0,0.0,43,0.00,,,0.00,Wunderground v.1.13,2013-11-05 14:08:00,
2013-11-05 06:13:00,53.5,32.1,30.14,West,269,0.0,0.0,44,0.00,,,0.00,Wunderground v.1.13,2013-11-05 14:13:00,
2013-11-05 06:18:00,53.2,32.4,30.14,West,269,0.0,0.0,45,0.00,,,0.00,Wunderground v.1.13,2013-11-05 14:18:00,
2013-11-05 06:23:00,53.0,32.2,30.14,West,269,0.0,1.0,45,0.00,,,0.00,Wunderground v.1.13,2013-11-05 14:23:00,
2013-11-05 06:28:00,52.6,32.4,30.14,West,269,0.0,0.0,46,0.00,,,0.00,Wunderground v.1.13,2013-11-05 14:28:00,
2013-11-05 06:33:00,52.3,32.1,30.14,West,269,0.0,0.0,46,0.00,,,0.00,Wunderground v.1.13,2013-11-05 14:33:00,
2013-11-05 06:38:00,52.1,31.9,30.14,West,269,0.0,0.0,46,0.00,,,0.00,Wunderground v.1.13,2013-11-05 14:38:00,
2013-11-05 06:43:00,51.7,32.6,30.14,West,269,0.0,0.0,48,0.00,,,0.00,Wunderground v.1.13,2013-11-05 14:43:00,
2013-11-05 06:48:00,51.4,32.3,30.14,West,269,0.0,0.0,48,0.00,,,0.00,Wunderground v.1.13,2013-11-05 14:48:00,
2013-11-05 06:53:00,51.1,32.6,30.15,West,269,0.0,0.0,49,0.00,,,0.00,Wunderground v.1.13,2013-11-05 14:53:00,
2013-11-05 06:58:00,50.7,32.7,30.15,West,269,0.0,1.0,50,0.00,,,0.00,Wunderground v.1.13,2013-11-05 14:58:00,
2013-11-05 07:03:00,50.4,32.9,30.15,West,269,0.0,0.0,51,0.00,,,0.00,Wunderground v.1.13,2013-11-05 15:03:00,
2013-11-05 07:08:00,50.1,33.1,30.16,West,269,0.0,0.0,52,0.00,,,0.00,Wunderground v.1.13,2013-11-05 15:08:00,
2013-11-05 07:13:00,49.8,32.9,30.16,West,269,0.0,0.0,52,0.00,,,0.00,Wunderground v.1.13,2013-11-05 15:13:00,
2013-11-05 07:18:00,49.7,33.2,30.16,West,269,0.0,1.0,53,0.00,,,0.00,Wunderground v.1.13,2013-11-05 15:18:00,
2013-11-05 07:23:00,49.8,33.8,30.16,West,269,0.0,0.0,54,0.00,,,0.00,Wunderground v.1.13,2013-11-05 15:23:00,
2013-11-05 07:28:00,50.4,35.3,30.16,West,269,0.0,0.0,56,0.00,,,0.00,Wunderground v.1.13,2013-11-05 15:28:00,
2013-11-05 07:33:00,51.4,34.8,30.16,West,269,0.0,0.0,53,0.00,,,0.00,Wunderground v.1.13,2013-11-05 15:33:00,
2013-11-05 07:38:00,52.4,35.8,30.16,West,269,0.0,0.0,53,0.00,,,0.00,Wunderground v.1.13,2013-11-05 15:38:00,
2013-11-05 07:43:00,53.1,36.9,30.16,West,269,0.0,1.0,54,0.00,,,0.00,Wunderground v.1.13,2013-11-05 15:43:00,
2013-11-05 07:48:00,54.1,37.3,30.17,West,268,0.0,1.0,53,0.00,,,0.00,Wunderground v.1.13,2013-11-05 15:48:00,
2013-11-05 07:53:00,55.1,38.7,30.17,South,186,0.0,1.0,54,0.00,,,0.00,Wunderground v.1.13,2013-11-05 15:53:00,
2013-11-05 07:58:00,56.1,38.2,30.17,South,177,0.0,1.0,51,0.00,,,0.00,Wunderground v.1.13,2013-11-05 15:58:00,
2013-11-05 08:03:00,56.7,39.3,30.17,South,177,0.0,1.0,52,0.00,,,0.00,Wunderground v.1.13,2013-11-05 16:03:00,
2013-11-05 08:08:00,56.8,38.9,30.17,South,177,0.0,0.0,51,0.00,,,0.00,Wunderground v.1.13,2013-11-05 16:08:00,
2013-11-05 08:13:00,57.6,39.1,30.18,SSE,168,1.0,2.0,50,0.00,,,0.00,Wunderground v.1.13,2013-11-05 16:13:00,
2013-11-05 08:18:00,57.9,38.3,30.18,East,99,3.0,4.0,48,0.00,,,0.00,Wunderground v.1.13,2013-11-05 16:18:00,
2013-11-05 08:23:00,58.4,39.3,30.18,ESE,121,0.0,2.0,49,0.00,,,0.00,Wunderground v.1.13,2013-11-05 16:23:00,
2013-11-05 08:28:00,59.0,40.4,30.18,SE,129,0.0,2.0,50,0.00,,,0.00,Wunderground v.1.13,2013-11-05 16:28:00,
2013-11-05 08:33:00,59.4,39.7,30.18,ESE,118,0.0,2.0,48,0.00,,,0.00,Wunderground v.1.13,2013-11-05 16:33:00,
2013-11-05 08:38:00,59.6,39.3,30.18,East,93,0.0,2.0,47,0.00,,,0.00,Wunderground v.1.13,2013-11-05 16:38:00,
2013-11-05 08:43:00,60.0,39.7,30.18,SSE,164,0.0,2.0,47,0.00,,,0.00,Wunderground v.1.13,2013-11-05 16:43:00,
2013-11-05 08:48:00,60.5,39.0,30.18,South,171,0.0,1.0,45,0.00,,,0.00,Wunderground v.1.13,2013-11-05 16:48:00,
2013-11-05 08:53:00,60.7,37.5,30.18,SW,219,0.0,1.0,42,0.00,,,0.00,Wunderground v.1.13,2013-11-05 16:53:00,
2013-11-05 08:59:00,60.6,36.1,30.18,WSW,238,0.0,2.0,40,0.00,,,0.00,Wunderground v.1.13,2013-11-05 16:59:00,
2013-11-05 09:04:00,60.7,37.5,30.18,West,263,1.0,2.0,42,0.00,,,0.00,Wunderground v.1.13,2013-11-05 17:04:00,
2013-11-05 09:09:00,60.9,37.0,30.18,SW,234,0.0,1.0,41,0.00,,,0.00,Wunderground v.1.13,2013-11-05 17:09:00,
2013-11-05 09:14:00,61.2,37.3,30.18,SW,225,0.0,1.0,41,0.00,,,0.00,Wunderground v.1.13,2013-11-05 17:14:00,
2013-11-05 09:19:00,61.1,36.6,30.18,WNW,284,0.0,2.0,40,0.00,,,0.00,Wunderground v.1.13,2013-11-05 17:19:00,
2013-11-05 09:24:00,61.4,37.5,30.18,WSW,248,1.0,1.0,41,0.00,,,0.00,Wunderground v.1.13,2013-11-05 17:24:00,
2013-11-05 09:29:00,61.7,36.5,30.18,East,88,1.0,3.0,39,0.00,,,0.00,Wunderground v.1.13,2013-11-05 17:29:00,
2013-11-05 09:34:00,61.2,36.0,30.18,East,86,0.0,2.0,39,0.00,,,0.00,Wunderground v.1.13,2013-11-05 17:34:00,
2013-11-05 09:39:00,61.7,37.7,30.18,East,83,1.0,2.0,41,0.00,,,0.00,Wunderground v.1.13,2013-11-05 17:39:00,
2013-11-05 09:44:00,62.2,37.6,30.18,ENE,78,0.0,1.0,40,0.00,,,0.00,Wunderground v.1.13,2013-11-05 17:44:00,
2013-11-05 09:49:00,63.2,38.5,30.19,East,92,1.0,2.0,40,0.00,,,0.00,Wunderground v.1.13,2013-11-05 17:49:00,
2013-11-05 09:54:00,63.3,37.9,30.19,East,96,1.0,1.0,39,0.00,,,0.00,Wunderground v.1.13,2013-11-05 17:54:00,
2013-11-05 09:59:00,62.8,35.4,30.18,East,88,0.0,3.0,36,0.00,,,0.00,Wunderground v.1.13,2013-11-05 17:59:00,
2013-11-05 10:04:00,63.1,37.7,30.18,East,88,0.0,1.0,39,0.00,,,0.00,Wunderground v.1.13,2013-11-05 18:04:00,
2013-11-05 10:09:00,63.5,38.1,30.18,NNE,32,0.0,1.0,39,0.00,,,0.00,Wunderground v.1.13,2013-11-05 18:09:00,
2013-11-05 10:14:00,63.2,35.8,30.19,ENE,67,0.0,3.0,36,0.00,,,0.00,Wunderground v.1.13,2013-11-05 18:14:00,
2013-11-05 10:19:00,63.8,37.0,30.19,ENE,67,2.0,4.0,37,0.00,,,0.00,Wunderground v.1.13,2013-11-05 18:19:00,
2013-11-05 10:24:00,63.8,37.0,30.19,WSW,248,0.0,1.0,37,0.00,,,0.00,Wunderground v.1.13,2013-11-05 18:24:00,
2013-11-05 10:29:00,64.7,37.1,30.18,WSW,257,1.0,1.0,36,0.00,,,0.00,Wunderground v.1.13,2013-11-05 18:29:00,
2013-11-05 10:34:00,65.8,38.8,30.18,WSW,242,0.0,1.0,37,0.00,,,0.00,Wunderground v.1.13,2013-11-05 18:34:00,
2013-11-05 10:39:00,66.4,37.9,30.19,WSW,258,0.0,1.0,35,0.00,,,0.00,Wunderground v.1.13,2013-11-05 18:39:00,
2013-11-05 10:44:00,67.1,39.2,30.18,WSW,250,0.0,0.0,36,0.00,,,0.00,Wunderground v.1.13,2013-11-05 18:44:00,
2013-11-05 10:50:00,67.8,38.4,30.18,WSW,250,1.0,2.0,34,0.00,,,0.00,Wunderground v.1.13,2013-11-05 18:50:00,
2013-11-05 10:55:00,67.6,38.2,30.18,East,90,1.0,1.0,34,0.00,,,0.00,Wunderground v.1.13,2013-11-05 18:55:00,
2013-11-05 11:00:00,68.1,36.3,30.18,ENE,69,3.0,3.0,31,0.00,,,0.00,Wunderground v.1.13,2013-11-05 19:00:00,
2013-11-05 11:07:00,68.9,36.2,30.17,NE,41,4.0,4.0,30,0.00,,,0.00,Wunderground v.1.13,2013-11-05 19:07:00,
2013-11-05 11:12:00,69.3,36.5,30.17,NE,50,2.0,5.0,30,0.00,,,0.00,Wunderground v.1.13,2013-11-05 19:12:00,
2013-11-05 11:17:00,69.2,36.4,30.17,ENE,61,3.0,11.0,30,0.00,,,0.00,Wunderground v.1.13,2013-11-05 19:17:00,
2013-11-05 11:22:00,69.3,37.3,30.17,ENE,69,4.0,5.0,31,0.00,,,0.00,Wunderground v.1.13,2013-11-05 19:22:00,
2013-11-05 11:27:00,69.7,36.0,30.17,NE,43,4.0,7.0,29,0.00,,,0.00,Wunderground v.1.13,2013-11-05 19:27:00,
2013-11-05 11:33:00,69.9,36.2,30.16,NE,55,3.0,5.0,29,0.00,,,0.00,Wunderground v.1.13,2013-11-05 19:33:00,
2013-11-05 11:38:00,70.1,36.3,30.16,NNE,26,3.0,6.0,29,0.00,,,0.00,Wunderground v.1.13,2013-11-05 19:38:00,
2013-11-05 11:43:00,70.1,36.3,30.16,East,80,1.0,7.0,29,0.00,,,0.00,Wunderground v.1.13,2013-11-05 19:43:00,
2013-11-05 11:48:00,70.5,36.7,30.16,NNW,333,2.0,5.0,29,0.00,,,0.00,Wunderground v.1.13,2013-11-05 19:48:00,
2013-11-05 11:53:00,70.5,36.7,30.16,East,80,3.0,5.0,29,0.00,,,0.00,Wunderground v.1.13,2013-11-05 19:53:00,
2013-11-05 11:58:00,70.4,36.6,30.16,NE,56,3.0,6.0,29,0.00,,,0.00,Wunderground v.1.13,2013-11-05 19:58:00,
2013-11-05 12:03:00,70.6,36.8,30.15,NE,56,2.0,5.0,29,0.00,,,0.00,Wunderground v.1.13,2013-11-05 20:03:00,
2013-11-05 12:08:00,70.8,37.8,30.15,NE,48,4.0,4.0,30,0.00,,,0.00,Wunderground v.1.13,2013-11-05 20:08:00,
2013-11-05 12:13:00,71.2,37.3,30.15,ENE,60,7.0,7.0,29,0.00,,,0.00,Wunderground v.1.13,2013-11-05 20:13:00,
2013-11-05 12:18:00,70.8,36.1,30.14,NE,46,3.0,6.0,28,0.00,,,0.00,Wunderground v.1.13,2013-11-05 20:18:00,
2013-11-05 12:23:00,71.0,37.1,30.14,NE,55,1.0,7.0,29,0.00,,,0.00,Wunderground v.1.13,2013-11-05 20:23:00,
2013-11-05 12:28:00,71.3,37.4,30.14,NE,54,2.0,9.0,29,0.00,,,0.00,Wunderground v.1.13,2013-11-05 20:28:00,
2013-11-05 12:33:00,71.3,37.4,30.14,ENE,71,1.0,5.0,29,0.00,,,0.00,Wunderground v.1.13,2013-11-05 20:33:00,
2013-11-05 12:38:00,71.3,36.5,30.14,East,83,3.0,11.0,28,0.00,,,0.00,Wunderground v.1.13,2013-11-05 20:38:00,
2013-11-05 12:43:00,71.3,36.5,30.14,ENE,58,3.0,6.0,28,0.00,,,0.00,Wunderground v.1.13,2013-11-05 20:43:00,
2013-11-05 12:48:00,71.6,37.6,30.14,NNE,19,1.0,3.0,29,0.00,,,0.00,Wunderground v.1.13,2013-11-05 20:48:00,
2013-11-05 12:53:00,71.7,36.8,30.14,North,5,4.0,5.0,28,0.00,,,0.00,Wunderground v.1.13,2013-11-05 20:53:00,
2013-11-05 12:58:00,71.8,36.9,30.13,ENE,61,2.0,4.0,28,0.00,,,0.00,Wunderground v.1.13,2013-11-05 20:58:00,
2013-11-05 13:03:00,71.9,37.9,30.13,NE,54,3.0,7.0,29,0.00,,,0.00,Wunderground v.1.13,2013-11-05 21:03:00,
2013-11-05 13:08:00,72.0,38.0,30.13,NW,319,0.0,2.0,29,0.00,,,0.00,Wunderground v.1.13,2013-11-05 21:08:00,
2013-11-05 13:13:00,72.3,37.4,30.13,NE,42,1.0,5.0,28,0.00,,,0.00,Wunderground v.1.13,2013-11-05 21:13:00,
2013-11-05 13:18:00,72.7,38.6,30.13,NNE,31,1.0,5.0,29,0.00,,,0.00,Wunderground v.1.13,2013-11-05 21:18:00,
2013-11-05 13:23:00,72.7,36.8,30.12,NE,46,3.0,6.0,27,0.00,,,0.00,Wunderground v.1.13,2013-11-05 21:23:00,
2013-11-05 13:28:00,72.7,36.8,30.12,ENE,68,6.0,9.0,27,0.00,,,0.00,Wunderground v.1.13,2013-11-05 21:28:00,
2013-11-05 13:33:00,72.9,37.9,30.12,NE,46,1.0,4.0,28,0.00,,,0.00,Wunderground v.1.13,2013-11-05 21:33:00,
2013-11-05 13:38:00,73.3,37.3,30.12,NE,51,2.0,4.0,27,0.00,,,0.00,Wunderground v.1.13,2013-11-05 21:38:00,
2013-11-05 13:44:00,73.0,37.0,30.12,NE,51,4.0,6.0,27,0.00,,,0.00,Wunderground v.1.13,2013-11-05 21:44:00,
2013-11-05 13:49:00,73.0,38.0,30.12,NE,55,2.0,7.0,28,0.00,,,0.00,Wunderground v.1.13,2013-11-05 21:49:00,
2013-11-05 13:54:00,73.0,37.0,30.11,ENE,57,1.0,7.0,27,0.00,,,0.00,Wunderground v.1.13,2013-11-05 21:54:00,
2013-11-05 13:59:00,73.0,37.0,30.11,NE,55,4.0,7.0,27,0.00,,,0.00,Wunderground v.1.13,2013-11-05 21:59:00,
2013-11-05 14:04:00,72.9,36.9,30.11,NE,38,0.0,4.0,27,0.00,,,0.00,Wunderground v.1.13,2013-11-05 22:04:00,
2013-11-05 14:09:00,72.9,36.9,30.11,NE,55,3.0,3.0,27,0.00,,,0.00,Wunderground v.1.13,2013-11-05 22:09:00,
2013-11-05 14:14:00,73.0,37.0,30.11,ENE,59,2.0,3.0,27,0.00,,,0.00,Wunderground v.1.13,2013-11-05 22:14:00,
2013-11-05 14:19:00,73.3,37.3,30.11,ENE,66,3.0,5.0,27,0.00,,,0.00,Wunderground v.1.13,2013-11-05 22:19:00,
2013-11-05 14:24:00,73.6,36.6,30.11,NE,56,2.0,6.0,26,0.00,,,0.00,Wunderground v.1.13,2013-11-05 22:24:00,
2013-11-05 14:29:00,73.5,36.5,30.11,ENE,57,3.0,11.0,26,0.00,,,0.00,Wunderground v.1.13,2013-11-05 22:29:00,
2013-11-05 14:34:00,73.3,37.3,30.11,NE,56,0.0,3.0,27,0.00,,,0.00,Wunderground v.1.13,2013-11-05 22:34:00,
2013-11-05 14:39:00,72.9,36.9,30.11,NE,49,1.0,3.0,27,0.00,,,0.00,Wunderground v.1.13,2013-11-05 22:39:00,
2013-11-05 14:44:00,72.8,36.9,30.12,ENE,67,3.0,3.0,27,0.00,,,0.00,Wunderground v.1.13,2013-11-05 22:44:00,
2013-11-05 14:49:00,72.8,36.9,30.12,East,90,2.0,3.0,27,0.00,,,0.00,Wunderground v.1.13,2013-11-05 22:49:00,
2013-11-05 14:54:00,72.8,36.9,30.12,ENE,75,0.0,4.0,27,0.00,,,0.00,Wunderground v.1.13,2013-11-05 22:54:00,
2013-11-05 14:59:00,72.8,36.9,30.12,ENE,75,0.0,2.0,27,0.00,,,0.00,Wunderground v.1.13,2013-11-05 22:59:00,
2013-11-05 15:04:00,72.8,39.5,30.12,SE,140,0.0,2.0,30,0.00,,,0.00,Wunderground v.1.13,2013-11-05 23:04:00,
2013-11-05 15:09:00,72.6,39.4,30.12,SE,142,0.0,0.0,30,0.00,,,0.00,Wunderground v.1.13,2013-11-05 23:09:00,
2013-11-05 15:14:00,71.9,39.6,30.12,SW,221,0.0,4.0,31,0.00,,,0.00,Wunderground v.1.13,2013-11-05 23:14:00,
2013-11-05 15:19:00,71.9,39.6,30.12,South,172,0.0,5.0,31,0.00,,,0.00,Wunderground v.1.13,2013-11-05 23:19:00,
2013-11-05 15:24:00,71.7,40.3,30.12,ESE,120,1.0,1.0,32,0.00,,,0.00,Wunderground v.1.13,2013-11-05 23:24:00,
2013-11-05 15:29:00,71.6,40.2,30.12,SSW,210,0.0,1.0,32,0.00,,,0.00,Wunderground v.1.13,2013-11-05 23:29:00,
2013-11-05 15:34:00,71.4,39.2,30.12,SSW,205,0.0,1.0,31,0.00,,,0.00,Wunderground v.1.13,2013-11-05 23:34:00,
2013-11-05 15:39:00,71.3,39.9,30.12,South,177,0.0,1.0,32,0.00,,,0.00,Wunderground v.1.13,2013-11-05 23:39:00,
2013-11-05 15:44:00,71.1,40.5,30.12,South,186,0.0,0.0,33,0.00,,,0.00,Wunderground v.1.13,2013-11-05 23:44:00,
2013-11-05 15:49:00,70.7,40.2,30.12,South,190,0.0,0.0,33,0.00,,,0.00,Wunderground v.1.13,2013-11-05 23:49:00,
2013-11-05 15:54:00,70.5,40.0,30.12,SSW,211,0.0,0.0,33,0.00,,,0.00,Wunderground v.1.13,2013-11-05 23:54:00,
2013-11-05 15:59:00,70.2,39.7,30.13,WSW,239,0.0,0.0,33,0.00,,,0.00,Wunderground v.1.13,2013-11-05 23:59:00,
2013-11-05 16:04:00,70.0,39.6,30.12,SW,228,0.0,1.0,33,0.00,,,0.00,Wunderground v.1.13,2013-11-06 00:04:00,
2013-11-05 16:09:00,69.9,40.2,30.13,SE,140,0.0,1.0,34,0.00,,,0.00,Wunderground v.1.13,2013-11-06 00:09:00,
2013-11-05 16:14:00,69.7,40.1,30.13,SSW,205,0.0,0.0,34,0.00,,,0.00,Wunderground v.1.13,2013-11-06 00:14:00,
2013-11-05 16:19:00,69.6,40.0,30.13,SSW,198,0.0,1.0,34,0.00,,,0.00,Wunderground v.1.13,2013-11-06 00:19:00,
2013-11-05 16:24:00,69.4,39.8,30.13,South,174,0.0,0.0,34,0.00,,,0.00,Wunderground v.1.13,2013-11-06 00:24:00,
2013-11-05 16:29:00,69.1,39.5,30.13,South,173,1.0,1.0,34,0.00,,,0.00,Wunderground v.1.13,2013-11-06 00:29:00,
2013-11-05 16:35:00,68.9,39.4,30.13,SSE,167,1.0,1.0,34,0.00,,,0.00,Wunderground v.1.13,2013-11-06 00:35:00,
2013-11-05 16:40:00,68.6,39.1,30.13,SSE,167,0.0,0.0,34,0.00,,,0.00,Wunderground v.1.13,2013-11-06 00:40:00,
2013-11-05 16:45:00,68.4,38.9,30.13,SSE,167,0.0,0.0,34,0.00,,,0.00,Wunderground v.1.13,2013-11-06 00:45:00,
2013-11-05 16:50:00,68.1,38.7,30.13,SSE,165,0.0,0.0,34,0.00,,,0.00,Wunderground v.1.13,2013-11-06 00:50:00,
2013-11-05 16:55:00,67.8,38.4,30.13,SSE,165,0.0,0.0,34,0.00,,,0.00,Wunderground v.1.13,2013-11-06 00:55:00,
2013-11-05 17:00:00,67.6,39.0,30.13,SSE,165,0.0,0.0,35,0.00,,,0.00,Wunderground v.1.13,2013-11-06 01:00:00,
2013-11-05 17:05:00,67.4,38.8,30.13,SSE,165,0.0,0.0,35,0.00,,,0.00,Wunderground v.1.13,2013-11-06 01:05:00,
2013-11-05 17:10:00,67.1,38.5,30.13,SSE,165,0.0,0.0,35,0.00,,,0.00,Wunderground v.1.13,2013-11-06 01:10:00,
2013-11-05 17:15:00,66.6,37.3,30.14,SE,140,0.0,0.0,34,0.00,,,0.00,Wunderground v.1.13,2013-11-06 01:15:00,
2013-11-05 17:20:00,66.4,37.9,30.14,SE,140,0.0,0.0,35,0.00,,,0.00,Wunderground v.1.13,2013-11-06 01:20:00,
2013-11-05 17:25:00,66.2,37.7,30.14,SE,140,0.0,0.0,35,0.00,,,0.00,Wunderground v.1.13,2013-11-06 01:25:00,
2013-11-05 17:30:00,65.9,38.2,30.14,SE,140,0.0,0.0,36,0.00,,,0.00,Wunderground v.1.13,2013-11-06 01:30:00,
2013-11-05 17:35:00,65.6,38.6,30.14,SE,140,0.0,0.0,37,0.00,,,0.00,Wunderground v.1.13,2013-11-06 01:35:00,
2013-11-05 17:40:00,65.2,38.3,30.14,SE,140,0.0,0.0,37,0.00,,,0.00,Wunderground v.1.13,2013-11-06 01:40:00,
2013-11-05 17:45:00,64.8,37.9,30.15,SE,140,0.0,0.0,37,0.00,,,0.00,Wunderground v.1.13,2013-11-06 01:45:00,
2013-11-05 17:50:00,64.5,38.3,30.15,SE,140,0.0,0.0,38,0.00,,,0.00,Wunderground v.1.13,2013-11-06 01:50:00,
2013-11-05 17:55:00,64.1,38.0,30.15,SE,140,0.0,0.0,38,0.00,,,0.00,Wunderground v.1.13,2013-11-06 01:55:00,
2013-11-05 18:00:00,63.8,37.7,30.15,SE,140,0.0,0.0,38,0.00,,,0.00,Wunderground v.1.13,2013-11-06 02:00:00,
2013-11-05 18:07:00,63.5,38.1,30.15,SE,140,0.0,0.0,39,0.00,,,0.00,Wunderground v.1.13,2013-11-06 02:07:00,
2013-11-05 18:12:00,63.0,38.3,30.16,SE,140,0.0,0.0,40,0.00,,,0.00,Wunderground v.1.13,2013-11-06 02:12:00,
2013-11-05 18:17:00,62.7,39.3,30.16,SE,140,0.0,0.0,42,0.00,,,0.00,Wunderground v.1.13,2013-11-06 02:17:00,
2013-11-05 18:22:00,62.3,38.9,30.16,SE,140,0.0,0.0,42,0.00,,,0.00,Wunderground v.1.13,2013-11-06 02:22:00,
2013-11-05 18:27:00,61.9,38.5,30.16,SE,140,0.0,0.0,42,0.00,,,0.00,Wunderground v.1.13,2013-11-06 02:27:00,
2013-11-05 18:32:00,61.5,38.8,30.16,SE,140,0.0,0.0,43,0.00,,,0.00,Wunderground v.1.13,2013-11-06 02:32:00,
2013-11-05 18:37:00,61.2,39.7,30.16,SE,140,0.0,0.0,45,0.00,,,0.00,Wunderground v.1.13,2013-11-06 02:37:00,
2013-11-05 18:42:00,60.9,40.0,30.17,SE,140,0.0,0.0,46,0.00,,,0.00,Wunderground v.1.13,2013-11-06 02:42:00,
2013-11-05 18:47:00,60.5,39.6,30.17,SE,140,0.0,0.0,46,0.00,,,0.00,Wunderground v.1.13,2013-11-06 02:47:00,
2013-11-05 18:52:00,60.2,39.9,30.17,SE,140,0.0,0.0,47,0.00,,,0.00,Wunderground v.1.13,2013-11-06 02:52:00,
2013-11-05 18:57:00,60.0,39.7,30.16,SE,140,0.0,0.0,47,0.00,,,0.00,Wunderground v.1.13,2013-11-06 02:57:00,
2013-11-05 19:02:00,59.7,39.4,30.17,SE,140,0.0,0.0,47,0.00,,,0.00,Wunderground v.1.13,2013-11-06 03:02:00,
2013-11-05 19:07:00,59.5,39.8,30.17,SE,140,0.0,0.0,48,0.00,,,0.00,Wunderground v.1.13,2013-11-06 03:07:00,
2013-11-05 19:12:00,59.0,39.9,30.17,SE,140,0.0,0.0,49,0.00,,,0.00,Wunderground v.1.13,2013-11-06 03:12:00,
2013-11-05 19:17:00,58.9,40.3,30.17,SE,140,0.0,0.0,50,0.00,,,0.00,Wunderground v.1.13,2013-11-06 03:17:00,
2013-11-05 19:22:00,58.5,39.9,30.17,SE,140,0.0,0.0,50,0.00,,,0.00,Wunderground v.1.13,2013-11-06 03:22:00,
2013-11-05 19:27:00,58.4,39.8,30.17,SE,140,0.0,0.0,50,0.00,,,0.00,Wunderground v.1.13,2013-11-06 03:27:00,
2013-11-05 19:32:00,58.1,40.1,30.17,SE,143,0.0,0.0,51,0.00,,,0.00,Wunderground v.1.13,2013-11-06 03:32:00,
2013-11-05 19:37:00,57.9,39.4,30.18,SE,143,0.0,0.0,50,0.00,,,0.00,Wunderground v.1.13,2013-11-06 03:37:00,
2013-11-05 19:42:00,57.7,39.7,30.18,SE,143,0.0,0.0,51,0.00,,,0.00,Wunderground v.1.13,2013-11-06 03:42:00,
2013-11-05 19:47:00,57.5,39.5,30.18,SE,143,0.0,0.0,51,0.00,,,0.00,Wunderground v.1.13,2013-11-06 03:47:00,
2013-11-05 19:52:00,57.4,39.4,30.18,SE,144,0.0,1.0,51,0.00,,,0.00,Wunderground v.1.13,2013-11-06 03:52:00,
2013-11-05 19:57:00,57.2,39.2,30.18,SE,144,0.0,0.0,51,0.00,,,0.00,Wunderground v.1.13,2013-11-06 03:57:00,
2013-11-05 20:02:00,56.9,39.4,30.18,SE,144,0.0,0.0,52,0.00,,,0.00,Wunderground v.1.13,2013-11-06 04:02:00,
2013-11-05 20:07:00,56.8,39.4,30.18,SE,144,0.0,0.0,52,0.00,,,0.00,Wunderground v.1.13,2013-11-06 04:07:00,
2013-11-05 20:12:00,56.6,39.7,30.18,SE,144,0.0,0.0,53,0.00,,,0.00,Wunderground v.1.13,2013-11-06 04:12:00,
2013-11-05 20:17:00,56.4,39.5,30.18,SE,144,0.0,0.0,53,0.00,,,0.00,Wunderground v.1.13,2013-11-06 04:17:00,
2013-11-05 20:22:00,56.3,39.4,30.18,SE,144,0.0,0.0,53,0.00,,,0.00,Wunderground v.1.13,2013-11-06 04:22:00,
2013-11-05 20:27:00,56.1,39.2,30.19,SE,144,0.0,0.0,53,0.00,,,0.00,Wunderground v.1.13,2013-11-06 04:27:00,
2013-11-05 20:32:00,56.0,39.1,30.19,SE,144,0.0,0.0,53,0.00,,,0.00,Wunderground v.1.13,2013-11-06 04:32:00,
2013-11-05 20:37:00,55.8,38.9,30.19,SE,144,0.0,1.0,53,0.00,,,0.00,Wunderground v.1.13,2013-11-06 04:37:00,
2013-11-05 20:42:00,55.6,38.7,30.19,SE,144,0.0,0.0,53,0.00,,,0.00,Wunderground v.1.13,2013-11-06 04:42:00,
2013-11-05 20:47:00,55.5,38.6,30.19,SE,144,0.0,0.0,53,0.00,,,0.00,Wunderground v.1.13,2013-11-06 04:47:00,
2013-11-05 20:52:00,55.3,38.9,30.19,SE,144,0.0,0.0,54,0.00,,,0.00,Wunderground v.1.13,2013-11-06 04:52:00,
2013-11-05 20:58:00,55.2,38.4,30.19,SE,144,0.0,0.0,53,0.00,,,0.00,Wunderground v.1.13,2013-11-06 04:58:00,
2013-11-05 21:01:00,55.1,38.3,30.20,SE,144,0.0,0.0,53,0.00,,,0.00,Wunderground v.1.13,2013-11-06 05:01:00,
2013-11-05 21:07:00,54.9,38.1,30.20,SE,144,0.0,0.0,53,0.00,,,0.00,Wunderground v.1.13,2013-11-06 05:07:00,
2013-11-05 21:12:00,54.7,38.4,30.20,SE,144,0.0,0.0,54,0.00,,,0.00,Wunderground v.1.13,2013-11-06 05:12:00,
2013-11-05 21:17:00,54.5,38.2,30.20,SE,144,0.0,0.0,54,0.00,,,0.00,Wunderground v.1.13,2013-11-06 05:17:00,
2013-11-05 21:22:00,54.3,38.5,30.20,SE,144,0.0,0.0,55,0.00,,,0.00,Wunderground v.1.13,2013-11-06 05:22:00,
2013-11-05 21:27:00,54.2,38.4,30.21,SE,144,0.0,0.0,55,0.00,,,0.00,Wunderground v.1.13,2013-11-06 05:27:00,
2013-11-05 21:32:00,54.0,38.2,30.21,SE,144,0.0,0.0,55,0.00,,,0.00,Wunderground v.1.13,2013-11-06 05:32:00,
2013-11-05 21:37:00,53.9,38.1,30.21,SE,144,1.0,1.0,55,0.00,,,0.00,Wunderground v.1.13,2013-11-06 05:37:00,
2013-11-05 21:42:00,53.8,38.0,30.21,SE,144,0.0,0.0,55,0.00,,,0.00,Wunderground v.1.13,2013-11-06 05:42:00,
2013-11-05 21:47:00,53.7,37.9,30.22,SE,144,0.0,0.0,55,0.00,,,0.00,Wunderground v.1.13,2013-11-06 05:47:00,
2013-11-05 21:52:00,53.6,37.8,30.22,SE,144,0.0,0.0,55,0.00,,,0.00,Wunderground v.1.13,2013-11-06 05:52:00,
2013-11-05 21:57:00,53.5,37.7,30.22,SE,144,0.0,1.0,55,0.00,,,0.00,Wunderground v.1.13,2013-11-06 05:57:00,
2013-11-05 22:02:00,53.5,37.7,30.22,SE,144,0.0,0.0,55,0.00,,,0.00,Wunderground v.1.13,2013-11-06 06:02:00,
2013-11-05 22:08:00,53.4,37.6,30.22,SE,144,0.0,0.0,55,0.00,,,0.00,Wunderground v.1.13,2013-11-06 06:08:00,
2013-11-05 22:13:00,53.3,37.5,30.22,SE,144,0.0,0.0,55,0.00,,,0.00,Wunderground v.1.13,2013-11-06 06:13:00,
2013-11-05 22:18:00,53.3,37.1,30.22,SE,144,0.0,0.0,54,0.00,,,0.00,Wunderground v.1.13,2013-11-06 06:18:00,
2013-11-05 22:23:00,53.2,37.0,30.22,SE,144,0.0,0.0,54,0.00,,,0.00,Wunderground v.1.13,2013-11-06 06:23:00,
2013-11-05 22:28:00,53.2,37.0,30.21,SE,144,0.0,0.0,54,0.00,,,0.00,Wunderground v.1.13,2013-11-06 06:28:00,
2013-11-05 22:33:00,53.1,36.9,30.21,SE,144,0.0,0.0,54,0.00,,,0.00,Wunderground v.1.13,2013-11-06 06:33:00,
2013-11-05 22:38:00,53.0,36.8,30.21,SE,144,0.0,0.0,54,0.00,,,0.00,Wunderground v.1.13,2013-11-06 06:38:00,
2013-11-05 22:43:00,53.0,36.8,30.21,SE,144,0.0,0.0,54,0.00,,,0.00,Wunderground v.1.13,2013-11-06 06:43:00,
2013-11-05 22:48:00,52.9,37.2,30.21,SE,144,0.0,0.0,55,0.00,,,0.00,Wunderground v.1.13,2013-11-06 06:48:00,
2013-11-05 22:53:00,52.8,37.1,30.21,SE,144,0.0,0.0,55,0.00,,,0.00,Wunderground v.1.13,2013-11-06 06:53:00,
2013-11-05 22:58:00,52.7,37.4,30.21,SE,144,0.0,0.0,56,0.00,,,0.00,Wunderground v.1.13,2013-11-06 06:58:00,
2013-11-05 23:03:00,52.6,37.3,30.22,SE,144,0.0,0.0,56,0.00,,,0.00,Wunderground v.1.13,2013-11-06 07:03:00,
2013-11-05 23:08:00,52.5,37.2,30.22,SE,144,0.0,0.0,56,0.00,,,0.00,Wunderground v.1.13,2013-11-06 07:08:00,
2013-11-05 23:13:00,52.4,37.2,30.22,SE,144,0.0,0.0,56,0.00,,,0.00,Wunderground v.1.13,2013-11-06 07:13:00,
2013-11-05 23:18:00,52.3,37.1,30.22,SE,144,0.0,0.0,56,0.00,,,0.00,Wunderground v.1.13,2013-11-06 07:18:00,
2013-11-05 23:23:00,52.2,37.4,30.22,SE,144,0.0,0.0,57,0.00,,,0.00,Wunderground v.1.13,2013-11-06 07:23:00,
2013-11-05 23:28:00,52.0,37.2,30.21,SE,144,0.0,0.0,57,0.00,,,0.00,Wunderground v.1.13,2013-11-06 07:28:00,
2013-11-05 23:33:00,51.8,37.0,30.21,SE,144,0.0,0.0,57,0.00,,,0.00,Wunderground v.1.13,2013-11-06 07:33:00,
2013-11-05 23:38:00,51.7,37.4,30.22,SE,144,0.0,0.0,58,0.00,,,0.00,Wunderground v.1.13,2013-11-06 07:38:00,
2013-11-05 23:43:00,51.5,37.6,30.22,SE,144,0.0,0.0,59,0.00,,,0.00,Wunderground v.1.13,2013-11-06 07:43:00,
2013-11-05 23:48:00,51.3,37.4,30.22,SE,144,0.0,0.0,59,0.00,,,0.00,Wunderground v.1.13,2013-11-06 07:48:00,
2013-11-05 23:53:00,51.1,37.7,30.21,SE,144,0.0,0.0,60,0.00,,,0.00,Wunderground v.1.13,2013-11-06 07:53:00,
2013-11-05 23:58:00,51.0,37.6,30.22,SE,144,0.0,0.0,60,0.00,,,0.00,Wunderground v.1.13,2013-11-06 07:58:00,